Location: ???????
(52.3000°N, 54.4667°E)
Time: 12:57:53
(UTC+00:00)

Cosmos 1300 - Pass Details

Date: 24 January 2020
Orbit: 511 x 515 km, 82.5° (Epoch: 27 February)

Event Time Altitude Azimuth Distance (km) Brightness Sun altitude
Rises 13:45:40 0° 346° (NNW) 2,644 6.2 -8.0°
Reaches altitude 10° 13:47:49 10° 344° (NNW) 1,751 5.3 -8.3°
Maximum altitude 13:51:37 64° 263° (W) 574 3.2 -8.9°
Drops below altitude 10° 13:55:23 10° 182° (S) 1,734 5.6 -9.4°
Sets 13:57:30 0° 179° (S) 2,614 6.5 -9.7°
